DW6368 Weather Reports


Display with metric or nautical units.
time (UTC)temp
F
wind
direction
speed
MPH
gust
MPH
rain 1hr
in
rain 24hr
in
rain mn
in
humidity
%
barometer
mb
20260901074303 65 51 0.0 1.0 0.00 0.00 0.00 94 1013.4
20260901073303 65 51 0.0 1.0 0.00 0.00 0.00 94 1013.4
20260901071303 65 29 0.0 1.0 0.00 0.00 0.00 93 1013.3
20260901070303 65 51 0.0 1.0 0.00 0.00 0.00 93 1013.3
20260901064303 66 220 0.0 1.0 0.00 0.00 0.00 92 1013.2
20260901063303 66 51 0.0 1.0 0.00 0.00 0.00 92 1012.9
20260901061303 66 40 0.0 1.0 0.00 0.00 0.00 91 1012.9
20260901060303 66 9 0.0 1.0 0.00 0.00 0.00 91 1012.8
20260901054324 67 324 0.0 1.0 0.00 0.00 0.00 90 1012.8
20260901053302 67 39 0.0 1.0 0.00 0.00 0.00 89 1012.8
20260901051303 68 36 0.0 1.0 0.00 0.00 0.00 88 1012.6
20260901050304 68 308 0.0 2.0 0.00 0.00 0.00 87 1012.6
20260901044302 69 315 0.0 2.0 0.00 0.00 0.00 86 1012.6
20260901043303 69 51 0.0 1.0 0.00 0.00 0.00 85 1012.5
20260901041303 70 318 1.0 3.0 0.00 0.00 0.00 85 1012.3
20260901040302 70 310 1.0 3.0 0.00 0.00 0.00 84 1012.1
20260901034303 70 301 2.0 5.0 0.00 0.00 0.00 84 1011.8
20260901033302 71 304 2.0 4.0 0.00 0.00 0.00 83 1011.6
20260901031303 71 307 3.0 5.0 0.00 0.00 0.00 82 1011.5
20260901030302 71 294 1.0 5.0 0.00 0.00 0.00 81 1011.3
20260901024303 72 319 1.0 6.0 0.00 0.00 0.00 80 1011.1
20260901023303 73 298 1.0 5.0 0.00 0.00 0.00 78 1011.1
20260901021302 75 306 3.0 8.0 0.00 0.00 0.00 74 1011.1
20260901020303 76 293 3.0 10.0 0.00 0.00 0.00 72 1011.1
20260901014303 78 324 2.0 8.0 0.00 0.00 0.00 70 1010.8
20260901013303 79 313 4.0 10.0 0.00 0.00 0.00 68 1010.9
20260901011302 82 255 2.0 5.0 0.00 0.00 0.00 66 1010.7
20260901010303 81 238 2.0 5.0 0.00 0.00 0.00 68 1010.7
20260901004303 80 215 2.0 9.0 0.00 0.00 0.00 66 1010.8
20260901003303 81 216 2.0 9.0 0.00 0.00 0.00 66 1011.0
20260901001303 80 222 4.0 7.0 0.00 0.00 0.00 70 1011.1
20260901000303 80 238 4.0 13.0 0.00 0.00 0.00 71 1011.4
20260831234303 81 242 4.0 13.0 0.00 0.00 0.00 69 1011.3
20260831233302 82 222 4.0 12.0 0.00 0.00 0.00 69 1011.4
20260831231324 82 217 4.0 11.0 0.00 0.00 0.00 68 1011.3
20260831230303 83 219 3.0 11.0 0.00 0.00 0.00 68 1011.4
20260831224324 83 219 3.0 9.0 0.00 0.00 0.00 68 1011.4
20260831223304 83 224 3.0 10.0 0.00 0.00 0.00 69 1011.5
20260831221303 83 236 3.0 10.0 0.00 0.00 0.00 69 1011.7
20260831220303 83 214 3.0 9.0 0.00 0.00 0.00 70 1011.8
20260831214324 83 213 2.0 7.0 0.00 0.00 0.00 70 1012.0
20260831213303 83 220 4.0 10.0 0.00 0.00 0.00 69 1012.1
20260831211303 83 225 3.0 9.0 0.00 0.00 0.00 69 1012.3
20260831210303 83 233 3.0 9.0 0.00 0.00 0.00 70 1012.3
20260831203303 83 221 3.0 11.0 0.00 0.00 0.00 70 1012.2
20260831201302 82 225 3.0 12.0 0.00 0.00 0.00 72 1012.4
20260831200303 82 221 2.0 11.0 0.00 0.00 0.00 72 1012.6
20260831194302 83 229 4.0 10.0 0.00 0.00 0.00 71 1012.5
20260831193303 84 189 2.0 6.0 0.00 0.00 0.00 70 1012.6
20260831191302 84 192 2.0 9.0 0.00 0.00 0.00 70 1012.7
20260831190303 84 186 2.0 6.0 0.00 0.00 0.00 70 1012.7
20260831184303 84 221 2.0 5.0 0.00 0.00 0.00 70 1012.9
20260831183303 84 196 2.0 6.0 0.00 0.00 0.00 71 1012.8
20260831181303 83 161 1.0 4.0 0.00 0.00 0.00 70 1012.8
20260831180303 82 255 1.0 4.0 0.00 0.00 0.00 72 1012.7
20260831174324 82 193 1.0 6.0 0.00 0.00 0.00 73 1012.8
20260831173302 82 204 2.0 7.0 0.00 0.00 0.00 73 1012.7
20260831171303 81 193 1.0 4.0 0.00 0.00 0.00 75 1012.6
20260831170302 81 65 0.0 2.0 0.00 0.00 0.00 72 1012.6
20260831164303 80 199 1.0 4.0 0.00 0.00 0.00 75 1012.6
20260831163302 79 171 1.0 5.0 0.00 0.00 0.00 78 1012.5
20260831161302 76 99 1.0 3.0 0.00 0.00 0.00 81 1012.4
20260831160303 75 90 1.0 3.0 0.00 0.00 0.00 83 1012.4
20260831154303 74 242 1.0 3.0 0.00 0.00 0.00 89 1012.3
20260831153303 73 141 1.0 3.0 0.00 0.00 0.00 91 1012.3
20260831151302 71 50 0.0 2.0 0.00 0.00 0.00 95 1012.3
20260831150303 71 181 1.0 2.0 0.00 0.00 0.00 96 1012.3
20260831144303 69 268 0.0 1.0 0.00 0.00 0.00 99 1012.0
20260831143302 68 31 0.0 1.0 0.00 0.00 0.00 98 1012.0
20260831141303 67 66 0.0 1.0 0.00 0.00 0.00 98 1011.6
20260831140303 67 357 0.0 1.0 0.00 0.00 0.00 98 1011.5
20260831134302 67 9 0.0 1.0 0.00 0.00 0.00 97 1011.4
20260831133303 67 51 0.0 1.0 0.00 0.00 0.00 97 1011.2
20260831131303 67 178 0.0 1.0 0.00 0.00 0.00 96 1011.1
20260831130303 67 137 0.0 1.0 0.00 0.00 0.00 96 1011.1
20260831124303 67 9 0.0 1.0 0.00 0.00 0.00 96 1010.9
20260831123303 67 51 0.0 0.0 0.00 0.00 0.00 96 1011.0
20260831121302 67 265 0.0 0.0 0.00 0.00 0.00 96 1010.8
20260831114302 67 93 0.0 1.0 0.00 0.00 0.00 95 1010.9
20260831113302 67 51 0.0 1.0 0.00 0.00 0.00 95 1010.9
20260831111324 67 51 0.0 1.0 0.00 0.00 0.00 95 1011.0
20260831110303 68 68 0.0 1.0 0.00 0.00 0.00 95 1011.0
20260831104324 68 9 0.0 1.0 0.00 0.00 0.00 95 1011.1
20260831103304 67 34 0.0 0.0 0.00 0.00 0.00 94 1011.1
20260831101302 68 9 0.0 1.0 0.00 0.00 0.00 93 1011.0
20260831100303 68 51 0.0 0.0 0.00 0.00 0.00 93 1011.1
20260831094303 68 29 0.0 1.0 0.00 0.00 0.00 92 1011.0
20260831093303 68 51 0.0 0.0 0.00 0.00 0.00 92 1011.0
20260831091303 68 9 0.0 1.0 0.00 0.00 0.00 91 1010.8
20260831090302 68 51 0.0 1.0 0.00 0.00 0.00 91 1010.8
20260831084302 68 74 0.0 1.0 0.00 0.00 0.00 90 1010.8
20260831083303 68 9 0.0 1.0 0.00 0.00 0.00 89 1010.9
20260831081324 68 51 0.0 1.0 0.00 0.00 0.00 89 1011.1
20260831080303 68 51 0.0 0.0 0.00 0.00 0.00 88 1011.1